Location: Unspecified
(0.0000°N, 0.0000°E)
Time: 18:59:36
(UTC+00:00)

Vanguard 1 Rocket - Pass Details

Date: 25 November 2019
Orbit: 650 x 4226 km, 34.3° (Epoch: 09 December)

Event Time Altitude Azimuth Distance (km) Brightness Sun altitude
Rises 09:12:26 0° 308° (NW) 3,945 10.3 47.0°
Reaches altitude 10° 09:14:34 10° 309° (NW) 3,249 9.9 47.4°
Maximum altitude 09:22:58 85° 37° (NE) 1,939 10.0 49.2°
Drops below altitude 10° 09:40:22 10° 126° (SE) 6,236 12.5 52.8°
Sets 09:46:20 0° 126° (SE) 7,732 12.7 54.0°
